Jacksonville NAS, FL

7:00 PM EDT on May 29, 2017 (GMT -0400)
Jacksonville Naval Air Station

Weather History for KNIP - August, 2014

Change the Weather History Date:

Thursday, August 14, 2014

  Actual Average Record
Temperature  
Mean Temperature 85 °F -  
Max Temperature 93 °F 88 °F 98 °F (1999)
Min Temperature 77 °F 73 °F 70 °F (1996)
Cooling Degree Days 20    
Growing Degree Days 35 (Base 50)    
Moisture  
Dew Point 74 °F    
Average Humidity 76    
Maximum Humidity 88    
Minimum Humidity 52    
Precipitation  
Precipitation 0.62 in - - ()
Sea Level Pressure  
Sea Level Pressure 29.98 in    
Wind  
Wind Speed 8 mph (SW)    
Max Wind Speed 16 mph    
Max Gust Speed -    
Visibility 8 miles    
Events Rain , Thunderstorm    
Averages and records for this station are not official NWS values.
T = Trace of Precipitation, MM = Missing Value Source: NWS Daily Summary

Daily Weather History Graph

Daily Weather History Graph

Search for Another Location

Airport or City:

Trip Planner

Search our weather history database for the weather conditions in past years. The results will help you decide how hot, cold, wet, or windy it might be!

Date:

Astronomy

Aug. 14, 2014 Rise Set
Actual Time 6:53 AM EDT 8:09 PM EDT
Civil Twilight 6:27 AM EDT 8:34 PM EDT
Nautical Twilight 5:57 AM EDT 9:04 PM EDT
Astronomical Twilight 5:26 AM EDT 9:35 PM EDT
Moon 10:56 PM EDT (8/14) 11:05 AM EDT (8/14)
Length of Visible Light 14h 06m
Length of Day
13h 15m
Waning Gibbous, 79% of the Moon is Illuminated
Aug 14
Waning Gibbous
Aug 17
Last Quarter
Aug 25
New
Sep 2
First Quarter
Sep 8
Full

Hourly Weather History & Observations

Time (EDT) Temp. Heat Index Dew Point Humidity Pressure Visibility Wind Dir Wind Speed Gust Speed Precip Events Conditions
12:53 AM 81.0 °F 86.2 °F 73.9 °F 79% 29.98 in 10.0 mi SSW 6.9 mph - N/A   Scattered Clouds
1:12 AM 81.0 °F 86.2 °F 73.9 °F 79% 29.98 in 10.0 mi SSW 9.2 mph - N/A   Mostly Cloudy
1:53 AM 81.0 °F 86.2 °F 73.9 °F 79% 29.97 in 10.0 mi South 8.1 mph - N/A   Partly Cloudy
2:53 AM 80.1 °F 84.5 °F 73.9 °F 81% 29.96 in 10.0 mi SSW 6.9 mph - N/A   Partly Cloudy
3:53 AM 80.1 °F 84.5 °F 73.9 °F 81% 29.95 in 10.0 mi SW 5.8 mph - N/A   Partly Cloudy
4:53 AM 79.0 °F - 75.0 °F 88% 29.96 in 10.0 mi SW 5.8 mph - N/A   Partly Cloudy
5:53 AM 79.0 °F - 75.0 °F 88% 29.96 in 10.0 mi SSW 5.8 mph - N/A   Partly Cloudy
6:53 AM 80.1 °F 85.1 °F 75.0 °F 85% 29.96 in 10.0 mi WSW 5.8 mph - N/A   Scattered Clouds
7:53 AM 80.1 °F 85.1 °F 75.0 °F 85% 29.98 in 10.0 mi West 8.1 mph - N/A   Mostly Cloudy
8:53 AM 81.0 °F 87.3 °F 75.9 °F 85% 29.99 in 10.0 mi WSW 5.8 mph - N/A   Mostly Cloudy
9:53 AM 84.9 °F 94.1 °F 75.9 °F 74% 30.01 in 10.0 mi SW 3.5 mph - N/A   Mostly Cloudy
10:53 AM 88.0 °F 97.5 °F 75.0 °F 65% 30.01 in 10.0 mi SSW 6.9 mph - N/A   Mostly Cloudy
11:53 AM 91.0 °F 99.3 °F 73.0 °F 55% 30.01 in 10.0 mi West 6.9 mph - N/A   Mostly Cloudy
12:53 PM 93.0 °F 101.9 °F 73.0 °F 52% 29.98 in 10.0 mi WSW 8.1 mph - N/A   Mostly Cloudy
1:16 PM 93.0 °F 101.9 °F 73.0 °F 52% 29.99 in 10.0 mi WSW 12.7 mph - N/A Thunderstorm Thunderstorm
1:45 PM 91.9 °F 100.7 °F 73.0 °F 54% 29.99 in 10.0 mi WSW 9.2 mph - N/A   Mostly Cloudy
1:53 PM 91.0 °F 100.4 °F 73.9 °F 57% 29.97 in 10.0 mi SW 9.2 mph - N/A   Mostly Cloudy
2:53 PM 89.1 °F 99.1 °F 75.0 °F 63% 29.96 in 10.0 mi South 10.4 mph - N/A   Mostly Cloudy
3:53 PM 88.0 °F 98.5 °F 75.9 °F 67% 29.95 in 10.0 mi South 8.1 mph - N/A   Mostly Cloudy
4:12 PM 89.1 °F 99.1 °F 75.0 °F 63% 29.95 in 10.0 mi Variable 3.5 mph - N/A Thunderstorm Thunderstorm
4:53 PM 81.0 °F 86.7 °F 75.0 °F 82% 29.94 in 6.0 mi East 13.8 mph - 0.06 in Rain , Thunderstorm Light Thunderstorms and Rain
5:53 PM 80.1 °F 83.8 °F 72.0 °F 76% 29.97 in 4.0 mi SSW 16.1 mph - 0.00 in Rain , Thunderstorm Thunderstorms and Rain
5:56 PM 79.0 °F - 72.0 °F 79% 30.00 in 1.5 mi WSW 16.1 mph - 0.03 in Rain , Thunderstorm Heavy Thunderstorms and Rain
6:12 PM 78.1 °F - 73.0 °F 84% 29.99 in 1.2 mi SW 11.5 mph - 0.36 in Rain , Thunderstorm Heavy Thunderstorms and Rain
6:20 PM 78.1 °F - 72.0 °F 81% 29.99 in 1.5 mi SW 9.2 mph - 0.42 in Rain , Thunderstorm Heavy Thunderstorms and Rain
6:37 PM 77.0 °F - 72.0 °F 84% 29.98 in 3.0 mi SSW 11.5 mph - 0.55 in Rain , Thunderstorm Heavy Thunderstorms and Rain
6:53 PM 78.1 °F - 72.0 °F 81% 29.97 in 4.0 mi South 10.4 mph - 0.56 in Rain , Thunderstorm Heavy Thunderstorms and Rain
7:09 PM 79.0 °F - 73.0 °F 82% 29.98 in 6.0 mi SSW 9.2 mph - 0.00 in Rain , Thunderstorm Light Thunderstorms and Rain
7:53 PM 78.1 °F - 73.0 °F 84% 29.98 in 9.0 mi SSW 6.9 mph - 0.00 in Rain , Thunderstorm Light Thunderstorms and Rain
8:07 PM 78.1 °F - 73.0 °F 84% 29.99 in 9.0 mi South 10.4 mph - N/A Rain Light Rain
8:53 PM 79.0 °F - 73.0 °F 82% 29.97 in 10.0 mi South 6.9 mph - N/A   Overcast
9:53 PM 79.0 °F - 73.0 °F 82% 29.97 in 10.0 mi SW 4.6 mph - 0.00 in   Overcast
10:53 PM 78.1 °F - 73.0 °F 84% 29.99 in 10.0 mi Calm Calm - N/A   Overcast
11:53 PM 78.1 °F - 73.0 °F 84% 29.98 in 10.0 mi South 5.8 mph - N/A   Overcast